STARLINK-34528

导读 | 豆包AI

STARLINK-34528是美国星链项目的卫星,于2025年6月23日发射升空,归属于SpaceX公司开发的星链卫星互联网星座。它主要服务于全球卫星宽带互联网项目,为全球不同地区提供高速低延迟的互联网覆盖,进一步扩充了星链星座的在轨卫星规模,推进星链全球组网进程。

Basic Information
目录编号:
64479
目录名称:
STARLINK-34528
国际标识:
2025-133H
轨道中心:
EARTH
卫星名称:
STARLINK-34528
卫星全名:
STARLINK-34528
卫星状态:
在轨 (已飞行310 天)
发射日期:
2025-06-23 UTC
国别 :
美国 (US)
星等 :
--
Orbit Information
数据来源 国际轨道数据
星历时间: 2026-04-29T14:00:03+0800
10小时前
查看轨道信息
半长轴: 6817.942km
偏心率: 0.0001672
轨道倾角: 53.160°
近地点辐角 101.135°
升交点赤经 241.548°
平近点角 311.017°
近地点: 438.665km
远地点: 440.945km
周期: 93.377分钟
每日圈数: 15.421365
Detailed Information
使用方式:
暂无
2D Orbit Map
3D Orbit Map
Orbit Altitude Analysis Chart
Orbit Inclination Analysis Chart
Orbit Comprehensive Analysis Chart
View Comprehensive Chart